Tracking 31011 objects as of 12-Jul-2025
HD Live streaming from Space Station
objects crossing your sky now

COSMOS 1275 DEB

Track COSMOS 1275 DEB now!
10-day predictions


NORAD ID: 13800
Int'l Code: 1981-053GX
Perigee: 904.7 km
Apogee: 1,134.9 km
Inclination: 83.2 °
Period: 105.4 minutes
Semi major axis: 7390 km
RCS: 0.062 m2 (small)
Launch date: June 4, 1981
Source: Commonwealth of Independent States (former USSR) (CIS)
Launch site: PLESETSK MISSILE AND SPACE COMPLEX (PKMTR)

Note: This is SATELLITE DEBRIS
Your satellite tracking list
Your tracking list is empty




NASA's NSSDC Master Catalog

Two Line Element Set (TLE):
1 13800U 81053GU  25193.57242216  .00001041  00000-0  11424-2 0  9998
2 13800  83.2226  42.8562 0155781 221.4499 166.8299 13.66363917107860
Source of the keplerian elements: AFSPC